Location: Sungai Bunut
(2.6333°N, 113.7333°E)
Time: 14:31:35
(UTC+00:00)

Altair - Pass Details

Date: 12 December 2023
Orbit: 1501 x 1682 km, 47.2° (Epoch: 24 February)

Event Time Altitude Azimuth Distance (km) Brightness Sun altitude
Rises 08:50:44 0° 296° (WNW) 4,624 10.6 19.0°
Reaches altitude 10° 08:54:15 10° 286° (WNW) 3,645 10.4 18.2°
Maximum altitude 09:01:48 29° 229° (SW) 2,489 10.4 16.5°
Drops below altitude 10° 09:09:31 10° 173° (S) 3,711 9.8 14.8°
Sets 09:13:12 0° 162° (SSE) 4,721 10.1 13.9°
